Hourly Weather Cavaillon

Today, 16 June, Wednesday

Time Temperature Precipitation Wind Pressure Humidity
00:00 +23°C° 0 mm 1 mps 749 mmHg 73%
01:00 +22°C° 0 mm 1 mps 748 mmHg 74%
02:00 +22°C° 0 mm 1 mps 748 mmHg 76%
03:00 +22°C° 0 mm 1 mps 748 mmHg 77%
04:00 +23°C° 0 mm 1 mps 748 mmHg 72%
05:00 +24°C° 0 mm 1 mps 748 mmHg 68%
06:00 +25°C° 0 mm 1 mps 748 mmHg 64%
07:00 +27°C° 0 mm 1 mps 748 mmHg 58%
08:00 +29°C° 0 mm 1 mps 748 mmHg 52%
09:00 +31°C° 0 mm 2 mps 748 mmHg 47%
10:00 +32°C° 0 mm 2 mps 748 mmHg 44%
11:00 +34°C° 0 mm 3 mps 747 mmHg 42%
12:00 +35°C° 0 mm 4 mps 747 mmHg 39%
13:00 +34°C° 0 mm 5 mps 747 mmHg 40%
14:00 +34°C° 0 mm 5 mps 747 mmHg 41%
15:00 +33°C° 0 mm 6 mps 747 mmHg 42%
16:00 +32°C° 0 mm 5 mps 747 mmHg 44%
17:00 +30°C° 0 mm 5 mps 747 mmHg 47%
18:00 +29°C° 0 mm 4 mps 747 mmHg 49%
19:00 +27°C° 0 mm 3 mps 747 mmHg 56%
20:00 +26°C° 0 mm 3 mps 747 mmHg 64%
21:00 +24°C° 0 mm 2 mps 747 mmHg 71%
22:00 +23°C° 0 mm 2 mps 747 mmHg 73%
23:00 +23°C° 0 mm 2 mps 747 mmHg 75%

Tomorrow, 17 June, Thursday

Time Temperature Precipitation Wind Pressure Humidity
00:00 +23°C° 0 mm 2 mps 747 mmHg 77%
01:00 +21°C° 0 mm 2 mps 747 mmHg 79%
02:00 +21°C° 0 mm 2 mps 748 mmHg 80%
03:00 +21°C° 0 mm 2 mps 748 mmHg 81%
04:00 +23°C° 0 mm 1 mps 748 mmHg 77%
05:00 +24°C° 0 mm 1 mps 748 mmHg 72%
06:00 +25°C° 0 mm 1 mps 748 mmHg 68%
07:00 +27°C° 0 mm 2 mps 748 mmHg 58%
08:00 +29°C° 0 mm 3 mps 748 mmHg 49%
09:00 +32°C° 0 mm 4 mps 748 mmHg 40%
10:00 +33°C° 0 mm 5 mps 747 mmHg 37%
11:00 +34°C° 0 mm 6 mps 747 mmHg 33%
12:00 +35°C° 0 mm 7 mps 746 mmHg 30%
13:00 +35°C° 0 mm 7 mps 746 mmHg 32%
14:00 +34°C° 0 mm 7 mps 746 mmHg 34%
15:00 +33°C° 0 mm 8 mps 746 mmHg 35%
16:00 +32°C° 0 mm 7 mps 746 mmHg 39%
17:00 +30°C° 0 mm 6 mps 746 mmHg 42%
18:00 +29°C° 0 mm 5 mps 746 mmHg 45%
19:00 +27°C° 0 mm 4 mps 747 mmHg 49%
20:00 +26°C° 0 mm 3 mps 747 mmHg 52%
21:00 +25°C° 0 mm 2 mps 747 mmHg 56%
22:00 +25°C° 0 mm 2 mps 747 mmHg 57%
23:00 +25°C° 0 mm 2 mps 747 mmHg 58%

Day after tomorrow, 18 June, Friday

Time Temperature Precipitation Wind Pressure Humidity
00:00 +24°C° 0 mm 3 mps 747 mmHg 60%
01:00 +24°C° 0 mm 2 mps 747 mmHg 61%
02:00 +24°C° 0 mm 2 mps 747 mmHg 62%
03:00 +24°C° 0 mm 2 mps 747 mmHg 63%
04:00 +24°C° 0 mm 2 mps 747 mmHg 62%
05:00 +25°C° 0 mm 2 mps 747 mmHg 60%
06:00 +25°C° 0 mm 2 mps 747 mmHg 59%
07:00 +27°C° 0 mm 3 mps 747 mmHg 54%
08:00 +29°C° 0 mm 5 mps 747 mmHg 49%
09:00 +30°C° 0 mm 6 mps 748 mmHg 45%
10:00 +32°C° 0 mm 6 mps 748 mmHg 44%
11:00 +33°C° 0 mm 6 mps 748 mmHg 43%
12:00 +33°C° 0 mm 7 mps 748 mmHg 43%
13:00 +33°C° 0 mm 6 mps 748 mmHg 44%
14:00 +33°C° 0 mm 6 mps 748 mmHg 45%
15:00 +32°C° 0 mm 6 mps 748 mmHg 47%
16:00 +30°C° 0 mm 5 mps 748 mmHg 51%
17:00 +29°C° 0 mm 4 mps 748 mmHg 55%
18:00 +28°C° 0 mm 4 mps 748 mmHg 59%
19:00 +27°C° 0 mm 3 mps 748 mmHg 68%
20:00 +25°C° 0 mm 2 mps 749 mmHg 76%
21:00 +23°C° 0 mm 2 mps 749 mmHg 85%
22:00 +23°C° 0 mm 1 mps 749 mmHg 86%
23:00 +23°C° 0 mm 1 mps 749 mmHg 87%

19 June, Saturday

Time Temperature Precipitation Wind Pressure Humidity
00:00 +22°C° 0 mm 1 mps 749 mmHg 87%
01:00 +22°C° 0 mm 1 mps 749 mmHg 86%
02:00 +21°C° 0 mm 2 mps 749 mmHg 85%
03:00 +21°C° 0 mm 2 mps 748 mmHg 84%
04:00 +23°C° 0 mm 2 mps 748 mmHg 78%
05:00 +24°C° 0 mm 2 mps 748 mmHg 72%
06:00 +25°C° 0 mm 2 mps 748 mmHg 67%
07:00 +27°C° 0 mm 2 mps 748 mmHg 58%
08:00 +29°C° 0 mm 2 mps 748 mmHg 49%
09:00 +31°C° 0 mm 2 mps 748 mmHg 40%
10:00 +32°C° 0 mm 2 mps 748 mmHg 39%
11:00 +33°C° 0 mm 3 mps 747 mmHg 37%
12:00 +34°C° 0 mm 3 mps 747 mmHg 36%
13:00 +34°C° 0 mm 4 mps 747 mmHg 36%
14:00 +34°C° 0 mm 5 mps 747 mmHg 36%
15:00 +35°C° 0 mm 5 mps 747 mmHg 36%
16:00 +33°C° 0.1 mm 4 mps 747 mmHg 43%
17:00 +30°C° 0.1 mm 3 mps 747 mmHg 49%
18:00 +28°C° 0.1 mm 2 mps 747 mmHg 55%
19:00 +27°C° 0 mm 2 mps 746 mmHg 58%
20:00 +26°C° 0 mm 3 mps 746 mmHg 62%
21:00 +25°C° 0 mm 4 mps 745 mmHg 65%
22:00 +26°C° 0 mm 6 mps 745 mmHg 58%
23:00 +27°C° 0 mm 7 mps 745 mmHg 50%

20 June, Sunday

Time Temperature Precipitation Wind Pressure Humidity
00:00 +28°C° 0 mm 9 mps 744 mmHg 43%
01:00 +28°C° 0 mm 7 mps 744 mmHg 48%
02:00 +27°C° 0 mm 6 mps 744 mmHg 53%
03:00 +26°C° 0 mm 4 mps 744 mmHg 58%
04:00 +26°C° 0.1 mm 5 mps 744 mmHg 58%
05:00 +27°C° 0.1 mm 5 mps 745 mmHg 59%
06:00 +27°C° 0.1 mm 6 mps 745 mmHg 59%
07:00 +28°C° 0 mm 7 mps 745 mmHg 55%
08:00 +30°C° 0 mm 7 mps 745 mmHg 51%
09:00 +32°C° 0 mm 8 mps 745 mmHg 47%
10:00 +33°C° 0 mm 7 mps 744 mmHg 44%
11:00 +34°C° 0 mm 7 mps 744 mmHg 41%
12:00 +35°C° 0 mm 7 mps 744 mmHg 37%
13:00 +33°C° 0.3 mm 7 mps 744 mmHg 43%
14:00 +32°C° 0.3 mm 6 mps 744 mmHg 50%
15:00 +29°C° 0.3 mm 6 mps 744 mmHg 56%
16:00 +29°C° 0.3 mm 6 mps 744 mmHg 59%
17:00 +28°C° 0.3 mm 5 mps 744 mmHg 61%
18:00 +28°C° 0.3 mm 5 mps 743 mmHg 64%
19:00 +26°C° 0.2 mm 4 mps 743 mmHg 70%
20:00 +25°C° 0.2 mm 4 mps 744 mmHg 77%
21:00 +23°C° 0.2 mm 4 mps 744 mmHg 83%
22:00 +22°C° 0.5 mm 3 mps 744 mmHg 85%
23:00 +22°C° 0.5 mm 3 mps 743 mmHg 87%

21 June, Monday

Time Temperature Precipitation Wind Pressure Humidity
00:00 +21°C° 0.5 mm 3 mps 743 mmHg 89%
01:00 +21°C° 0 mm 3 mps 743 mmHg 89%
02:00 +21°C° 0 mm 3 mps 743 mmHg 89%
03:00 +21°C° 0 mm 3 mps 743 mmHg 89%
04:00 +22°C° 0 mm 4 mps 743 mmHg 85%
05:00 +22°C° 0 mm 4 mps 743 mmHg 81%
06:00 +23°C° 0 mm 5 mps 743 mmHg 77%
07:00 +26°C° 0 mm 6 mps 743 mmHg 65%
08:00 +28°C° 0 mm 6 mps 743 mmHg 53%
09:00 +29°C° 0 mm 7 mps 743 mmHg 41%
10:00 +30°C° 0 mm 7 mps 743 mmHg 39%
11:00 +31°C° 0 mm 8 mps 743 mmHg 36%
12:00 +32°C° 0 mm 8 mps 743 mmHg 34%
13:00 +32°C° 0 mm 8 mps 743 mmHg 35%
14:00 +30°C° 0 mm 7 mps 743 mmHg 37%
15:00 +30°C° 0 mm 7 mps 743 mmHg 38%
16:00 +29°C° 0 mm 7 mps 743 mmHg 42%
17:00 +28°C° 0 mm 6 mps 743 mmHg 45%
18:00 +27°C° 0 mm 5 mps 743 mmHg 49%
19:00 +26°C° 0 mm 5 mps 743 mmHg 56%
20:00 +23°C° 0 mm 4 mps 744 mmHg 62%
21:00 +22°C° 0 mm 3 mps 744 mmHg 69%
22:00 +21°C° 0.1 mm 3 mps 744 mmHg 72%
23:00 +20°C° 0.1 mm 2 mps 744 mmHg 75%
Show more

We Need Your Consent

Meteoprog and our Service Providers may store and access personal data such as cookies, device identifiers or other similar technologies on your device and process such data to personalise content and ads, as well as provide social media features and to analyse the traffic.

  • Store and/or access information on your device

    Cookies, device identifiers or other information can be stored or accessed on your device for the purposes indicated above.

  • Personalised ads and content, ad and content measurement, audience insights, and products development

    Ads and content can be personalised based on a profile. More data can be added to better personalise ads and content. Ad and content performance can be measured. Insights about the audience who saw the ads and content can be derived. Such data can be used to develop or improve user’s experience, systems and software.

By clicking ‘I Agree’ you will allow the use of indicated cookies, device identifiers, web beacons or other similar technologies. Your settings can be changed in the browser on your device.

For certain purposes, legitimate interests may be relied on, rather than consent. You can read more about this in our Privacy and Cookie Policy.